Regional Weather Roundup
Issued by NWS

Home | Current Version | Previous Version | Text Only | Print | Product List | Glossary On
Versions: 1 2 3 4 5 6 7 8 9 10 11 12 13 14 15 16 17 18 19 20 21 22 23 24 25 26 27 28 29 30 31 32 33 34 35 36 37 38 39 40 41 42 43 44 45 46 47 48 49 50
500
ASUS43 KLMK 172010
RWRKY
KENTUCKY REGIONAL WEATHER ROUNDUP
NATIONAL WEATHER SERVICE LOUISVILLE KY
300 PM EST WED JAN 17 2018

NOTE "FAIR" INDICATES FEW OR NO CLOUDS BELOW 12,000 FEET
WITH NO SIGNIFICANT WEATHER AND/OR OBSTRUCTIONS TO VISIBILITY.

KYZ001>023-026-027-061>063-070>075-172100-
WESTERN AND SOUTH CENTRAL KENTUCKY

CITY           SKY/WX    TMP DP  RH WIND       PRES   REMARKS
PADUCAH        FAIR      19   7  59 SW3       30.66F
HENDERSON      FAIR      18   8  65 SW7       30.65F WCI   9
OWENSBORO      FAIR      22   9  57 SW6       30.64F WCI  14
HOPKINSVILLE   FAIR      14   5  66 N3        30.64F
BOWLING GREEN  CLOUDY    18   9  68 W6        30.63S WCI  10
GLASGOW        FLURRIES  19   9  66 NW7       30.60S WCI   9
$$

KYZ024-025-028>034-038-045-046-053-172100-
NORTH CENTRAL KENTUCKY

CITY           SKY/WX    TMP DP  RH WIND       PRES   REMARKS
LOUISVILLE/SDF CLOUDY    18  10  71 VRB5      30.58F WCI  11
LOUISVILLE/LOU CLOUDY    17  10  74 S6        30.59F WCI   9
FORT KNOX      CLOUDY    16   9  73 W6        30.56F WCI   7
$$

KYZ035>037-039>044-047>052-055>060-089>105-172100-
NORTHEAST KENTUCKY

CITY           SKY/WX    TMP DP  RH WIND       PRES   REMARKS
LEXINGTON      FAIR      16   7  67 NW8       30.54S WCI   5
COVINGTON      FAIR      17  10  74 SW7       30.50F WCI   8
FRANKFORT      CLOUDY    16   6  65 NW6       30.55F WCI   7
$$

KYZ054-064>069-076>088-106>120-172100-
SOUTHEAST KENTUCKY

CITY           SKY/WX    TMP DP  RH WIND       PRES   REMARKS
JACKSON        CLOUDY    12   4  70 W6        30.47F WCI   3
LONDON         CLOUDY    13   5  70 CALM      30.50F
SOMERSET       PTSUNNY   18   7  62 N6        30.56S WCI   9
MIDDLESBORO    CLOUDY    14   6  68 N9        30.50F WCI   2
MONTICELLO     CLOUDY    17   8  67 W8        30.56F WCI   7
$$





USA.gov is the U.S. government's official web portal to all federal, state and local government web resources and services.